Time,TemperatureF,DewpointF,PressureIn,WindDirection,WindDirectionDegrees,WindSpeedMPH,WindSpeedGustMPH,Humidity,HourlyPrecipIn,Conditions,Clouds,dailyrainin,SolarRadiationWatts/m^2,SoftwareType,DateUTC
2013-01-10 00:04:00,70.3,64.9,30.00,North,0,3.6,4.6,83,0.00,RA,BKN,0.00,0.0,WeatherDisplay:10.37,2013-01-10 10:04:00,
2013-01-10 00:09:00,70.3,65.3,30.00,NNW,338,2.0,3.5,84,0.00,RA,BKN,0.00,0.0,WeatherDisplay:10.37,2013-01-10 10:09:00,
2013-01-10 00:14:00,70.3,64.9,30.00,WNW,292,2.6,3.5,83,0.00,SCT,BKN,0.00,0.0,WeatherDisplay:10.37,2013-01-10 10:14:00,
2013-01-10 00:19:00,70.5,65.1,30.00,North,0,4.0,5.8,83,0.00,SCT,BKN,0.00,0.0,WeatherDisplay:10.37,2013-01-10 10:19:00,
2013-01-10 00:24:00,70.5,65.1,30.00,NNE,22,3.3,4.6,83,0.00,SCT,BKN,0.00,0.0,WeatherDisplay:10.37,2013-01-10 10:24:00,
2013-01-10 00:29:00,70.2,65.4,30.00,NW,315,3.6,3.6,85,0.00,SCT,BKN,0.00,0.0,WeatherDisplay:10.37,2013-01-10 10:29:00,
2013-01-10 00:34:00,70.0,65.3,30.00,ENE,68,2.6,3.5,85,0.00,SCT,BKN,0.00,0.0,WeatherDisplay:10.37,2013-01-10 10:34:00,
2013-01-10 00:39:00,69.8,65.4,30.00,NE,45,3.8,5.4,86,0.00,SCT,BKN,0.00,0.0,WeatherDisplay:10.37,2013-01-10 10:39:00,
2013-01-10 00:44:00,70.2,64.8,30.00,NE,45,1.4,4.6,83,0.00,SCT,BKN,0.00,0.0,WeatherDisplay:10.37,2013-01-10 10:44:00,
2013-01-10 00:49:00,70.2,65.4,29.97,NE,45,4.7,5.8,85,0.00,SCT,BKN,0.00,0.0,WeatherDisplay:10.37,2013-01-10 10:49:00,
2013-01-10 00:54:00,70.2,65.4,29.97,NNW,338,3.3,4.6,85,0.00,SCT,BKN,0.00,0.0,WeatherDisplay:10.37,2013-01-10 10:54:00,
2013-01-10 00:59:00,70.2,65.1,29.97,NE,45,2.2,3.5,84,0.00,SCT,BKN,0.00,0.0,WeatherDisplay:10.37,2013-01-10 10:59:00,
2013-01-10 01:04:00,70.3,65.6,30.00,East,90,1.6,3.3,85,0.00,SCT,BKN,0.00,0.0,WeatherDisplay:10.37,2013-01-10 11:04:00,
2013-01-10 01:09:00,70.5,65.1,30.00,NW,315,6.0,6.9,83,0.00,SCT,BKN,0.00,0.0,WeatherDisplay:10.37,2013-01-10 11:09:00,
2013-01-10 01:14:00,70.7,65.3,30.00,NNE,22,4.3,9.7,83,0.00,SCT,BKN,0.00,0.0,WeatherDisplay:10.37,2013-01-10 11:14:00,
2013-01-10 01:19:00,70.7,64.6,30.00,SE,135,4.7,5.8,81,0.00,SCT,BKN,0.00,0.0,WeatherDisplay:10.37,2013-01-10 11:19:00,
2013-01-10 01:24:00,70.7,64.6,30.00,East,90,4.3,6.0,81,0.00,SCT,BKN,0.00,0.0,WeatherDisplay:10.37,2013-01-10 11:24:00,
2013-01-10 01:29:00,70.5,64.4,30.00,NW,315,3.6,6.0,81,0.00,SCT,BKN,0.00,0.0,WeatherDisplay:10.37,2013-01-10 11:29:00,
2013-01-10 01:34:00,70.5,64.0,30.00,NNE,22,1.6,3.5,80,0.00,SCT,BKN,0.00,0.0,WeatherDisplay:10.37,2013-01-10 11:34:00,
2013-01-10 01:39:00,70.3,63.9,30.00,East,90,3.6,3.6,80,0.00,SCT,BKN,0.00,0.0,WeatherDisplay:10.37,2013-01-10 11:39:00,
2013-01-10 01:44:00,70.2,64.1,30.00,NNW,338,2.4,3.5,81,0.00,SCT,BKN,0.00,0.0,WeatherDisplay:10.37,2013-01-10 11:44:00,
2013-01-10 01:49:00,70.2,63.7,30.00,NE,45,1.4,2.3,80,0.00,SCT,BKN,0.00,0.0,WeatherDisplay:10.37,2013-01-10 11:49:00,
2013-01-10 01:54:00,70.2,64.1,30.00,SE,135,3.3,3.5,81,0.00,SCT,BKN,0.00,0.0,WeatherDisplay:10.37,2013-01-10 11:54:00,
2013-01-10 01:59:00,70.0,63.9,30.00,NE,45,2.4,3.5,81,0.00,SCT,BKN,0.00,0.0,WeatherDisplay:10.37,2013-01-10 11:59:00,
2013-01-10 02:04:00,70.2,63.7,29.97,NNE,22,1.6,3.5,80,0.00,SCT,BKN,0.00,0.0,WeatherDisplay:10.37,2013-01-10 12:04:00,
2013-01-10 02:09:00,69.8,63.3,29.97,ENE,68,1.1,2.6,80,0.00,SCT,BKN,0.00,0.0,WeatherDisplay:10.37,2013-01-10 12:09:00,
2013-01-10 02:14:00,69.8,63.0,29.97,East,90,2.4,4.6,79,0.00,SCT,BKN,0.00,0.0,WeatherDisplay:10.37,2013-01-10 12:14:00,
2013-01-10 02:19:00,70.2,63.7,30.00,NE,45,2.6,3.5,80,0.00,SCT,BKN,0.00,0.0,WeatherDisplay:10.37,2013-01-10 12:19:00,
2013-01-10 02:24:00,70.2,63.7,30.00,WSW,248,1.1,3.5,80,0.00,SCT,BKN,0.00,0.0,WeatherDisplay:10.37,2013-01-10 12:24:00,
2013-01-10 02:29:00,70.2,62.6,30.00,SW,225,1.4,5.8,77,0.00,SCT,BKN,0.00,0.0,WeatherDisplay:10.37,2013-01-10 12:29:00,
2013-01-10 02:34:00,70.0,63.2,29.97,WNW,292,2.4,3.5,79,0.00,SCT,BKN,0.00,0.0,WeatherDisplay:10.37,2013-01-10 12:34:00,
2013-01-10 02:39:00,70.0,63.2,29.97,WNW,292,2.0,3.5,79,0.00,SCT,BKN,0.00,0.0,WeatherDisplay:10.37,2013-01-10 12:39:00,
2013-01-10 02:44:00,70.0,63.2,29.97,North,0,2.6,4.6,79,0.00,SCT,BKN,0.00,0.0,WeatherDisplay:10.37,2013-01-10 12:44:00,
2013-01-10 02:49:00,70.0,62.8,30.00,NE,45,4.7,5.8,78,0.00,SCT,BKN,0.00,0.0,WeatherDisplay:10.37,2013-01-10 12:49:00,
2013-01-10 02:54:00,70.0,63.2,30.00,NNE,22,3.6,4.6,79,0.00,SCT,BKN,0.00,0.0,WeatherDisplay:10.37,2013-01-10 12:54:00,
2013-01-10 02:59:00,69.8,62.6,30.00,NNE,22,1.4,4.6,78,0.00,SCT,BKN,0.00,0.0,WeatherDisplay:10.37,2013-01-10 12:59:00,
2013-01-10 03:04:00,70.0,62.8,30.00,North,0,0.0,5.8,78,0.00,SCT,BKN,0.00,0.0,WeatherDisplay:10.37,2013-01-10 13:04:00,
2013-01-10 03:09:00,69.8,63.0,30.00,NE,45,1.1,2.3,79,0.00,SCT,BKN,0.00,0.0,WeatherDisplay:10.37,2013-01-10 13:09:00,
2013-01-10 03:14:00,69.8,63.0,30.00,NNE,22,2.0,3.5,79,0.00,SCT,BKN,0.00,0.0,WeatherDisplay:10.37,2013-01-10 13:14:00,
2013-01-10 03:19:00,69.8,62.6,29.97,ENE,68,3.8,4.6,78,0.00,SCT,BKN,0.00,0.0,WeatherDisplay:10.37,2013-01-10 13:19:00,
2013-01-10 03:24:00,69.8,62.3,29.97,NE,45,2.2,4.6,77,0.00,SCT,BKN,0.00,0.0,WeatherDisplay:10.37,2013-01-10 13:24:00,
2013-01-10 03:29:00,69.8,62.6,29.97,East,90,2.9,3.5,78,0.00,SCT,BKN,0.00,0.0,WeatherDisplay:10.37,2013-01-10 13:29:00,
2013-01-10 03:34:00,69.8,62.6,29.97,NW,315,2.0,4.9,78,0.00,SCT,BKN,0.00,0.0,WeatherDisplay:10.37,2013-01-10 13:34:00,
2013-01-10 03:39:00,70.0,62.4,29.97,South,180,4.0,4.6,77,0.00,SCT,BKN,0.00,0.0,WeatherDisplay:10.37,2013-01-10 13:39:00,
2013-01-10 03:44:00,69.8,62.3,29.97,SSW,202,2.9,3.5,77,0.00,SCT,BKN,0.00,0.0,WeatherDisplay:10.37,2013-01-10 13:44:00,
2013-01-10 03:49:00,70.0,62.1,29.97,SW,225,4.5,5.8,76,0.00,SCT,BKN,0.00,0.0,WeatherDisplay:10.37,2013-01-10 13:49:00,
2013-01-10 03:54:00,70.2,61.9,29.97,NNW,338,2.2,4.6,75,0.00,SCT,BKN,0.00,0.0,WeatherDisplay:10.37,2013-01-10 13:54:00,
2013-01-10 03:59:00,70.0,62.1,29.97,South,180,2.4,3.5,76,0.00,SCT,BKN,0.00,0.0,WeatherDisplay:10.37,2013-01-10 13:59:00,
2013-01-10 04:04:00,70.2,61.5,29.97,NNW,338,4.5,5.8,74,0.00,SCT,BKN,0.00,0.0,WeatherDisplay:10.37,2013-01-10 14:04:00,
2013-01-10 04:09:00,70.2,61.9,29.97,East,90,4.0,5.8,75,0.00,SCT,BKN,0.00,0.0,WeatherDisplay:10.37,2013-01-10 14:09:00,
2013-01-10 04:14:00,70.2,61.9,29.97,SW,225,2.4,3.6,75,0.00,SCT,BKN,0.00,0.0,WeatherDisplay:10.37,2013-01-10 14:14:00,
2013-01-10 04:19:00,70.0,61.7,30.00,NE,45,1.4,2.3,75,0.00,SCT,BKN,0.00,0.0,WeatherDisplay:10.37,2013-01-10 14:19:00,
2013-01-10 04:24:00,70.0,62.1,30.00,SSE,158,5.9,5.9,76,0.00,SCT,BKN,0.00,0.0,WeatherDisplay:10.37,2013-01-10 14:24:00,
2013-01-10 04:29:00,70.0,61.7,30.00,East,90,3.1,5.8,75,0.00,SCT,BKN,0.00,0.0,WeatherDisplay:10.37,2013-01-10 14:29:00,
2013-01-10 04:34:00,69.8,61.9,29.97,SW,225,1.4,4.6,76,0.00,SCT,BKN,0.00,0.0,WeatherDisplay:10.37,2013-01-10 14:34:00,
2013-01-10 04:39:00,69.6,61.7,29.97,SE,135,0.0,2.3,76,0.00,SCT,BKN,0.00,0.0,WeatherDisplay:10.37,2013-01-10 14:39:00,
2013-01-10 04:44:00,69.6,62.1,29.97,East,90,3.1,3.5,77,0.00,SCT,BKN,0.00,0.0,WeatherDisplay:10.37,2013-01-10 14:44:00,
2013-01-10 04:49:00,69.8,61.9,30.00,NE,45,4.0,5.8,76,0.00,SCT,BKN,0.00,0.0,WeatherDisplay:10.37,2013-01-10 14:49:00,
2013-01-10 04:54:00,70.0,62.4,30.00,NNE,22,4.9,5.8,77,0.00,SCT,BKN,0.00,0.0,WeatherDisplay:10.37,2013-01-10 14:54:00,
2013-01-10 04:59:00,70.0,62.4,30.00,NNW,338,4.3,5.8,77,0.00,SCT,BKN,0.00,0.0,WeatherDisplay:10.37,2013-01-10 14:59:00,
2013-01-10 05:04:00,70.0,62.8,30.00,NNW,338,5.6,6.9,78,0.00,SCT,BKN,0.00,0.0,WeatherDisplay:10.37,2013-01-10 15:04:00,
2013-01-10 05:09:00,70.0,62.4,30.00,NE,45,2.9,4.6,77,0.00,SCT,BKN,0.00,0.0,WeatherDisplay:10.37,2013-01-10 15:09:00,
2013-01-10 05:14:00,69.8,61.9,30.00,NNE,22,2.6,3.5,76,0.00,SCT,BKN,0.00,0.0,WeatherDisplay:10.37,2013-01-10 15:14:00,
2013-01-10 05:19:00,69.8,62.3,30.00,ESE,112,1.6,2.3,77,0.00,SCT,BKN,0.00,0.0,WeatherDisplay:10.37,2013-01-10 15:19:00,
2013-01-10 05:24:00,69.6,62.5,30.00,NNW,338,2.4,3.6,78,0.00,SCT,BKN,0.00,0.0,WeatherDisplay:10.37,2013-01-10 15:24:00,
2013-01-10 05:29:00,69.6,62.5,30.00,East,90,2.6,3.3,78,0.00,SCT,BKN,0.00,0.0,WeatherDisplay:10.37,2013-01-10 15:29:00,
2013-01-10 05:34:00,69.6,62.1,30.00,SW,225,6.0,9.2,77,0.00,SCT,BKN,0.00,0.0,WeatherDisplay:10.37,2013-01-10 15:34:00,
2013-01-10 05:39:00,69.4,62.3,30.00,ESE,112,3.1,4.6,78,0.00,SCT,BKN,0.00,0.0,WeatherDisplay:10.37,2013-01-10 15:39:00,
2013-01-10 05:44:00,69.3,62.1,30.00,SE,135,2.0,3.5,78,0.00,SCT,BKN,0.00,0.0,WeatherDisplay:10.37,2013-01-10 15:44:00,
2013-01-10 09:46:00,72.5,64.1,30.03,NNE,22,3.8,5.8,75,0.00,SCT,BKN,0.00,125.0,WeatherDisplay:10.37,2013-01-10 19:46:00,
2013-01-10 09:51:00,72.7,64.3,30.03,NW,315,4.0,5.8,75,0.00,SCT,BKN,0.00,125.0,WeatherDisplay:10.37,2013-01-10 19:51:00,
2013-01-10 09:56:00,73.0,64.6,30.03,NNE,22,2.9,4.6,75,0.00,SCT,BKN,0.00,125.0,WeatherDisplay:10.37,2013-01-10 19:56:00,
2013-01-10 10:01:00,73.0,63.9,30.03,NNE,22,4.3,5.8,73,0.00,SCT,BKN,0.00,125.0,WeatherDisplay:10.37,2013-01-10 20:01:00,
2013-01-10 10:06:00,73.2,64.0,30.06,South,180,0.0,1.1,73,0.00,SCT,BKN,0.00,125.0,WeatherDisplay:10.37,2013-01-10 20:06:00,
2013-01-10 10:11:00,73.4,63.4,30.06,ENE,68,3.6,5.8,71,0.00,SCT,BKN,0.00,125.0,WeatherDisplay:10.37,2013-01-10 20:11:00,
2013-01-10 10:16:00,73.4,63.4,30.06,NW,315,2.0,3.5,71,0.00,SCT,BKN,0.00,125.0,WeatherDisplay:10.37,2013-01-10 20:16:00,
2013-01-10 10:21:00,73.4,63.4,30.03,West,270,1.6,2.6,71,0.00,SCT,BKN,0.00,125.0,WeatherDisplay:10.37,2013-01-10 20:21:00,
2013-01-10 10:26:00,73.6,63.6,30.03,SW,225,1.1,2.4,71,0.00,SCT,BKN,0.00,125.0,WeatherDisplay:10.37,2013-01-10 20:26:00,
2013-01-10 10:31:00,73.9,63.9,30.03,WNW,292,2.4,2.4,71,0.00,SCT,BKN,0.00,125.0,WeatherDisplay:10.37,2013-01-10 20:31:00,
2013-01-10 10:36:00,74.3,63.9,30.03,NNE,22,2.9,5.8,70,0.00,SCT,BKN,0.00,125.0,WeatherDisplay:10.37,2013-01-10 20:36:00,
2013-01-10 10:41:00,73.9,63.9,30.03,ENE,68,2.6,3.5,71,0.00,SCT,BKN,0.00,125.0,WeatherDisplay:10.37,2013-01-10 20:41:00,
2013-01-10 10:46:00,73.9,63.9,30.03,SSE,158,1.4,3.5,71,0.00,SCT,BKN,0.00,125.0,WeatherDisplay:10.37,2013-01-10 20:46:00,
2013-01-10 10:51:00,74.3,64.3,30.03,NNW,338,2.2,4.6,71,0.00,SCT,BKN,0.00,125.0,WeatherDisplay:10.37,2013-01-10 20:51:00,
2013-01-10 10:56:00,74.1,64.1,30.03,NNW,338,2.9,5.8,71,0.00,SCT,BKN,0.00,125.0,WeatherDisplay:10.37,2013-01-10 20:56:00,
2013-01-10 11:01:00,74.3,64.3,30.03,ESE,112,2.2,3.5,71,0.00,SCT,BKN,0.00,125.0,WeatherDisplay:10.37,2013-01-10 21:01:00,
2013-01-10 11:06:00,75.0,65.0,30.03,NW,315,2.0,3.5,71,0.00,SCT,BKN,0.00,125.0,WeatherDisplay:10.37,2013-01-10 21:06:00,
2013-01-10 11:11:00,75.4,64.9,30.03,NNE,22,2.6,6.2,70,0.00,SCT,BKN,0.00,125.0,WeatherDisplay:10.37,2013-01-10 21:11:00,
2013-01-10 11:16:00,75.6,64.7,30.03,North,0,0.9,1.1,69,0.00,SCT,BKN,0.00,125.0,WeatherDisplay:10.37,2013-01-10 21:16:00,
2013-01-10 11:21:00,76.3,64.9,30.00,North,0,2.9,3.5,68,0.00,SCT,BKN,0.00,250.0,WeatherDisplay:10.37,2013-01-10 21:21:00,
2013-01-10 11:26:00,76.1,64.3,30.00,NNW,338,2.0,3.5,67,0.00,SCT,BKN,0.00,125.0,WeatherDisplay:10.37,2013-01-10 21:26:00,
2013-01-10 11:31:00,76.3,65.4,30.00,NNW,338,2.0,2.9,69,0.00,SCT,BKN,0.00,125.0,WeatherDisplay:10.37,2013-01-10 21:31:00,
2013-01-10 11:36:00,75.9,64.6,30.00,ENE,68,2.2,2.3,68,0.00,SCT,BKN,0.00,125.0,WeatherDisplay:10.37,2013-01-10 21:36:00,
2013-01-10 11:41:00,75.6,65.1,30.00,NE,45,3.6,4.6,70,0.00,SCT,BKN,0.00,125.0,WeatherDisplay:10.37,2013-01-10 21:41:00,
2013-01-10 11:46:00,75.2,64.3,30.00,North,0,3.1,4.6,69,0.00,SCT,BKN,0.00,125.0,WeatherDisplay:10.37,2013-01-10 21:46:00,
2013-01-10 11:51:00,75.7,64.8,30.00,NE,45,0.0,1.1,69,0.00,SCT,BKN,0.00,125.0,WeatherDisplay:10.37,2013-01-10 21:51:00,
2013-01-10 11:56:00,75.9,64.6,30.00,North,0,1.6,3.6,68,0.00,SCT,BKN,0.00,250.0,WeatherDisplay:10.37,2013-01-10 21:56:00,
2013-01-10 12:01:00,75.9,64.6,30.00,NNW,338,3.1,4.6,68,0.00,SCT,BKN,0.00,250.0,WeatherDisplay:10.37,2013-01-10 22:01:00,
2013-01-10 12:06:00,76.1,64.3,30.00,NNE,22,2.9,3.5,67,0.00,SCT,BKN,0.00,250.0,WeatherDisplay:10.37,2013-01-10 22:06:00,
2013-01-10 12:11:00,76.8,64.6,30.00,NNE,22,2.0,2.4,66,0.00,SCT,BKN,0.00,375.0,WeatherDisplay:10.37,2013-01-10 22:11:00,
2013-01-10 12:16:00,79.2,66.4,30.00,NNW,338,3.3,4.6,65,0.00,SCT,BKN,0.00,750.0,WeatherDisplay:10.37,2013-01-10 22:16:00,
2013-01-10 12:21:00,79.3,65.2,30.03,NW,315,3.1,4.3,62,0.00,SCT,BKN,0.00,625.0,WeatherDisplay:10.37,2013-01-10 22:21:00,
2013-01-10 12:26:00,79.5,64.9,30.03,North,0,3.3,3.5,61,0.00,SCT,BKN,0.00,250.0,WeatherDisplay:10.37,2013-01-10 22:26:00,
2013-01-10 12:31:00,79.5,65.4,30.03,NE,45,1.6,3.5,62,0.00,SCT,BKN,0.00,375.0,WeatherDisplay:10.37,2013-01-10 22:31:00,
2013-01-10 12:36:00,79.2,65.0,30.00,NNE,22,2.2,3.5,62,0.00,SCT,BKN,0.00,250.0,WeatherDisplay:10.37,2013-01-10 22:36:00,
2013-01-10 12:41:00,78.6,65.0,30.00,West,270,0.9,3.1,63,0.00,SCT,BKN,0.00,250.0,WeatherDisplay:10.37,2013-01-10 22:41:00,
2013-01-10 12:46:00,79.3,65.2,30.00,NNE,22,3.1,4.6,62,0.00,SCT,BKN,0.00,250.0,WeatherDisplay:10.37,2013-01-10 22:46:00,
2013-01-10 12:51:00,78.3,64.2,30.00,WSW,248,1.4,2.6,62,0.00,SCT,BKN,0.00,250.0,WeatherDisplay:10.37,2013-01-10 22:51:00,
2013-01-10 12:56:00,77.0,64.8,30.00,WNW,292,2.6,3.5,66,0.00,SCT,BKN,0.00,250.0,WeatherDisplay:10.37,2013-01-10 22:56:00,
2013-01-10 13:01:00,75.6,64.3,30.00,NE,45,3.6,4.6,68,0.00,SCT,BKN,0.00,250.0,WeatherDisplay:10.37,2013-01-10 23:01:00,
2013-01-10 13:06:00,77.0,66.0,30.00,NE,45,2.2,4.6,69,0.00,SCT,BKN,0.00,250.0,WeatherDisplay:10.37,2013-01-10 23:06:00,
2013-01-10 13:11:00,77.4,66.4,30.00,North,0,3.1,3.5,69,0.00,SCT,BKN,0.00,250.0,WeatherDisplay:10.37,2013-01-10 23:11:00,
2013-01-10 13:16:00,76.8,65.9,30.00,NE,45,3.8,5.6,69,0.00,SCT,BKN,0.00,250.0,WeatherDisplay:10.37,2013-01-10 23:16:00,
2013-01-10 13:21:00,77.7,65.0,30.00,NE,45,4.0,4.9,65,0.00,SCT,BKN,0.00,1125.0,WeatherDisplay:10.37,2013-01-10 23:21:00,
2013-01-10 13:26:00,81.3,68.0,30.00,NNE,22,2.2,3.5,64,0.00,SCT,BKN,0.00,1000.0,WeatherDisplay:10.37,2013-01-10 23:26:00,
2013-01-10 13:31:00,84.0,69.1,30.00,NE,45,2.6,3.5,61,0.00,SCT,BKN,0.00,1000.0,WeatherDisplay:10.37,2013-01-10 23:31:00,
2013-01-10 13:36:00,84.9,69.5,29.97,NE,45,2.4,3.5,60,0.00,SCT,BKN,0.00,1000.0,WeatherDisplay:10.37,2013-01-10 23:36:00,
2013-01-10 13:41:00,84.4,67.0,29.97,WNW,292,3.6,8.1,56,0.00,SCT,BKN,0.00,1000.0,WeatherDisplay:10.37,2013-01-10 23:41:00,
2013-01-10 13:46:00,82.4,66.1,29.97,NNE,22,4.0,4.6,58,0.00,SCT,BKN,0.00,250.0,WeatherDisplay:10.37,2013-01-10 23:46:00,
2013-01-10 13:51:00,80.6,64.9,29.97,NNE,22,4.3,6.9,59,0.00,SCT,BKN,0.00,250.0,WeatherDisplay:10.37,2013-01-10 23:51:00,
2013-01-10 13:56:00,82.6,67.3,29.97,NNE,22,3.6,4.9,60,0.00,SCT,BKN,0.00,1000.0,WeatherDisplay:10.37,2013-01-10 23:56:00,
2013-01-10 14:01:00,83.1,67.3,29.97,NE,45,4.9,5.9,59,0.00,SCT,BKN,0.00,1000.0,WeatherDisplay:10.37,2013-01-11 00:01:00,
2013-01-10 14:06:00,84.4,68.0,29.97,NE,45,3.1,4.3,58,0.00,SCT,BKN,0.00,750.0,WeatherDisplay:10.37,2013-01-11 00:06:00,
2013-01-10 14:11:00,83.3,66.5,29.97,NNE,22,4.3,5.9,57,0.00,SCT,BKN,0.00,250.0,WeatherDisplay:10.37,2013-01-11 00:11:00,
2013-01-10 14:16:00,80.2,64.6,29.97,NNE,22,4.3,5.8,59,0.00,SCT,BKN,0.00,250.0,WeatherDisplay:10.37,2013-01-11 00:16:00,
2013-01-10 14:21:00,79.2,65.5,29.97,NE,45,3.6,4.6,63,0.00,SCT,BKN,0.00,250.0,WeatherDisplay:10.37,2013-01-11 00:21:00,
2013-01-10 14:26:00,79.0,65.3,29.97,NE,45,3.8,4.6,63,0.00,SCT,BKN,0.00,125.0,WeatherDisplay:10.37,2013-01-11 00:26:00,
2013-01-10 14:31:00,79.5,65.8,29.97,NE,45,3.3,5.8,63,0.00,SCT,BKN,0.00,375.0,WeatherDisplay:10.37,2013-01-11 00:31:00,
2013-01-10 14:36:00,79.5,65.4,29.97,NE,45,3.1,4.6,62,0.00,SCT,BKN,0.00,125.0,WeatherDisplay:10.37,2013-01-11 00:36:00,
2013-01-10 14:41:00,78.3,65.1,29.97,NE,45,3.3,4.6,64,0.00,SCT,BKN,0.00,750.0,WeatherDisplay:10.37,2013-01-11 00:41:00,
2013-01-10 14:46:00,78.8,66.0,29.97,NNE,22,3.1,5.8,65,0.00,SCT,BKN,0.00,125.0,WeatherDisplay:10.37,2013-01-11 00:46:00,
2013-01-10 14:51:00,80.1,66.8,29.97,NE,45,2.6,5.8,64,0.00,SCT,BKN,0.00,750.0,WeatherDisplay:10.37,2013-01-11 00:51:00,
2013-01-10 14:56:00,78.6,65.4,29.97,NE,45,3.1,4.0,64,0.00,SCT,BKN,0.00,250.0,WeatherDisplay:10.37,2013-01-11 00:56:00,
2013-01-10 15:01:00,77.2,64.5,29.97,NNE,22,3.6,4.6,65,0.00,SCT,BKN,0.00,125.0,WeatherDisplay:10.37,2013-01-11 01:01:00,
2013-01-10 15:06:00,78.6,66.3,29.97,NE,45,3.3,4.6,66,0.00,SCT,BKN,0.00,125.0,WeatherDisplay:10.37,2013-01-11 01:06:00,
2013-01-10 15:11:00,79.2,65.9,29.97,East,90,4.7,5.8,64,0.00,SCT,BKN,0.00,750.0,WeatherDisplay:10.37,2013-01-11 01:11:00,
2013-01-10 15:17:00,80.4,66.7,29.97,NE,45,6.2,8.1,63,0.00,SCT,BKN,0.00,625.0,WeatherDisplay:10.37,2013-01-11 01:17:00,
2013-01-10 15:22:00,80.2,66.5,30.00,ENE,68,4.7,5.8,63,0.00,SCT,BKN,0.00,625.0,WeatherDisplay:10.37,2013-01-11 01:22:00,
2013-01-10 15:27:00,82.2,67.9,30.00,NE,45,3.1,4.7,62,0.00,SCT,BKN,0.00,625.0,WeatherDisplay:10.37,2013-01-11 01:27:00,
2013-01-10 15:32:00,82.8,67.0,30.00,NE,45,4.7,6.9,59,0.00,SCT,BKN,0.00,625.0,WeatherDisplay:10.37,2013-01-11 01:32:00,
2013-01-10 15:37:00,82.9,66.6,30.00,NNW,338,3.6,4.6,58,0.00,SCT,BKN,0.00,500.0,WeatherDisplay:10.37,2013-01-11 01:37:00,
2013-01-10 15:42:00,82.8,66.5,30.00,NE,45,4.9,6.9,58,0.00,SCT,BKN,0.00,500.0,WeatherDisplay:10.37,2013-01-11 01:42:00,
2013-01-10 15:47:00,82.2,66.0,29.97,NE,45,3.3,5.8,58,0.00,SCT,BKN,0.00,500.0,WeatherDisplay:10.37,2013-01-11 01:47:00,
2013-01-10 15:52:00,81.9,65.6,29.97,ENE,68,4.0,5.8,58,0.00,SCT,BKN,0.00,375.0,WeatherDisplay:10.37,2013-01-11 01:52:00,
2013-01-10 15:57:00,82.0,65.3,29.97,NE,45,4.7,5.9,57,0.00,SCT,BKN,0.00,375.0,WeatherDisplay:10.37,2013-01-11 01:57:00,
2013-01-10 16:02:00,82.6,66.8,30.00,NNW,338,4.7,5.8,59,0.00,SCT,BKN,0.00,375.0,WeatherDisplay:10.37,2013-01-11 02:02:00,
2013-01-10 16:07:00,82.6,66.3,30.00,ENE,68,4.7,5.8,58,0.00,SCT,BKN,0.00,250.0,WeatherDisplay:10.37,2013-01-11 02:07:00,
2013-01-10 16:12:00,81.3,65.1,30.00,North,0,3.3,4.6,58,0.00,SCT,BKN,0.00,250.0,WeatherDisplay:10.37,2013-01-11 02:12:00,
2013-01-10 16:17:00,81.3,65.1,30.00,ENE,68,4.7,5.8,58,0.00,SCT,BKN,0.00,125.0,WeatherDisplay:10.37,2013-01-11 02:17:00,
2013-01-10 16:22:00,81.0,65.3,30.00,NE,45,4.0,5.8,59,0.00,SCT,BKN,0.00,125.0,WeatherDisplay:10.37,2013-01-11 02:22:00,
2013-01-10 16:27:00,81.0,65.8,30.00,NNE,22,5.9,6.2,60,0.00,SCT,BKN,0.00,125.0,WeatherDisplay:10.37,2013-01-11 02:27:00,
2013-01-10 16:32:00,81.3,66.1,30.00,ENE,68,2.4,3.5,60,0.00,SCT,BKN,0.00,125.0,WeatherDisplay:10.37,2013-01-11 02:32:00,
2013-01-10 16:37:00,80.8,64.6,30.00,ENE,68,4.9,5.8,58,0.00,SCT,BKN,0.00,125.0,WeatherDisplay:10.37,2013-01-11 02:37:00,
2013-01-10 16:42:00,80.8,65.6,30.00,NE,45,3.3,5.8,60,0.00,SCT,BKN,0.00,0.0,WeatherDisplay:10.37,2013-01-11 02:42:00,
2013-01-10 16:47:00,80.8,65.6,30.00,NE,45,2.9,6.0,60,0.00,SCT,BKN,0.00,0.0,WeatherDisplay:10.37,2013-01-11 02:47:00,
2013-01-10 16:53:00,80.1,64.9,30.00,NNW,338,3.1,5.4,60,0.00,SCT,BKN,0.00,0.0,WeatherDisplay:10.37,2013-01-11 02:53:00,
2013-01-10 16:58:00,80.4,66.2,30.00,ENE,68,4.3,6.4,62,0.00,SCT,BKN,0.00,0.0,WeatherDisplay:10.37,2013-01-11 02:58:00,
2013-01-10 17:03:00,80.1,65.4,30.03,NE,45,4.9,5.8,61,0.00,SCT,BKN,0.00,0.0,WeatherDisplay:10.37,2013-01-11 03:03:00,
2013-01-10 17:08:00,79.2,65.0,30.03,NE,45,4.9,6.9,62,0.00,SCT,BKN,0.00,0.0,WeatherDisplay:10.37,2013-01-11 03:08:00,
2013-01-10 17:13:00,78.6,64.5,30.03,North,0,4.0,5.8,62,0.00,SCT,BKN,0.00,0.0,WeatherDisplay:10.37,2013-01-11 03:13:00,
2013-01-10 17:18:00,78.4,64.8,29.97,NE,45,5.4,6.9,63,0.00,SCT,BKN,0.00,0.0,WeatherDisplay:10.37,2013-01-11 03:18:00,
2013-01-10 17:23:00,78.4,64.8,29.97,NNE,22,4.0,6.9,63,0.00,SCT,BKN,0.00,0.0,WeatherDisplay:10.37,2013-01-11 03:23:00,
2013-01-10 17:28:00,78.4,65.2,29.97,NE,45,3.6,5.8,64,0.00,SCT,BKN,0.00,0.0,WeatherDisplay:10.37,2013-01-11 03:28:00,
2013-01-10 17:33:00,77.4,64.2,30.00,NE,45,4.7,5.8,64,0.00,SCT,BKN,0.00,0.0,WeatherDisplay:10.37,2013-01-11 03:33:00,
2013-01-10 17:38:00,76.5,64.3,30.00,ENE,68,6.7,8.1,66,0.00,SCT,BKN,0.00,0.0,WeatherDisplay:10.37,2013-01-11 03:38:00,
2013-01-10 17:43:00,74.8,63.6,30.00,NNE,22,4.0,6.9,68,0.00,SCT,BKN,0.00,0.0,WeatherDisplay:10.37,2013-01-11 03:43:00,
2013-01-10 17:48:00,73.8,63.8,30.00,NNE,22,3.3,5.6,71,0.00,SCT,BKN,0.00,0.0,WeatherDisplay:10.37,2013-01-11 03:48:00,
2013-01-10 17:53:00,73.2,63.6,30.00,ENE,68,3.6,5.8,72,0.00,SCT,BKN,0.00,0.0,WeatherDisplay:10.37,2013-01-11 03:53:00,
2013-01-10 17:58:00,72.9,63.7,30.00,NE,45,3.3,6.0,73,0.00,SCT,BKN,0.00,0.0,WeatherDisplay:10.37,2013-01-11 03:58:00,
2013-01-10 18:03:00,72.5,63.7,30.00,NE,45,3.6,4.6,74,0.00,SCT,BKN,0.00,0.0,WeatherDisplay:10.37,2013-01-11 04:03:00,
2013-01-10 18:08:00,72.3,63.6,30.00,NE,45,2.2,4.6,74,0.00,SCT,BKN,0.00,0.0,WeatherDisplay:10.37,2013-01-11 04:08:00,
2013-01-10 18:13:00,72.1,63.8,30.00,NNE,22,3.1,4.6,75,0.00,SCT,BKN,0.00,0.0,WeatherDisplay:10.37,2013-01-11 04:13:00,
2013-01-10 18:18:00,72.0,64.0,30.00,NNE,22,2.9,4.6,76,0.00,SCT,BKN,0.00,0.0,WeatherDisplay:10.37,2013-01-11 04:18:00,
2013-01-10 18:23:00,71.8,63.4,30.00,NE,45,3.1,4.6,75,0.00,SCT,BKN,0.00,0.0,WeatherDisplay:10.37,2013-01-11 04:23:00,
2013-01-10 18:28:00,71.6,63.6,30.00,NE,45,3.8,3.8,76,0.00,SCT,BKN,0.00,0.0,WeatherDisplay:10.37,2013-01-11 04:28:00,
2013-01-10 18:33:00,71.6,63.6,30.03,ENE,68,5.4,6.9,76,0.00,SCT,BKN,0.00,0.0,WeatherDisplay:10.37,2013-01-11 04:33:00,
2013-01-10 18:38:00,71.6,63.6,30.03,ENE,68,7.6,10.4,76,0.00,SCT,BKN,0.00,0.0,WeatherDisplay:10.37,2013-01-11 04:38:00,
2013-01-10 18:43:00,71.6,64.0,30.03,ENE,68,5.6,8.1,77,0.00,SCT,BKN,0.00,0.0,WeatherDisplay:10.37,2013-01-11 04:43:00,
2013-01-10 18:48:00,71.6,63.6,30.00,NE,45,2.9,3.5,76,0.00,SCT,BKN,0.00,0.0,WeatherDisplay:10.37,2013-01-11 04:48:00,
2013-01-10 18:53:00,71.6,64.0,30.00,NNE,22,2.6,5.8,77,0.00,SCT,BKN,0.00,0.0,WeatherDisplay:10.37,2013-01-11 04:53:00,
2013-01-10 18:58:00,71.6,63.6,30.00,North,0,4.9,6.9,76,0.00,SCT,BKN,0.00,0.0,WeatherDisplay:10.37,2013-01-11 04:58:00,
2013-01-10 19:03:00,71.8,64.5,29.97,NE,45,3.8,5.8,78,0.00,SCT,BKN,0.00,0.0,WeatherDisplay:10.37,2013-01-11 05:03:00,
2013-01-10 19:04:00,71.8,64.5,29.97,East,90,4.0,6.0,78,0.00,SCT,BKN,0.00,0.0,WeatherDisplay:10.37,2013-01-11 05:04:00,
2013-01-10 19:09:00,71.8,63.8,29.97,NE,45,1.1,1.1,76,0.00,SCT,BKN,0.00,0.0,WeatherDisplay:10.37,2013-01-11 05:09:00,
2013-01-10 19:14:00,71.8,64.2,29.97,SE,135,1.4,3.8,77,0.00,SCT,BKN,0.00,0.0,WeatherDisplay:10.37,2013-01-11 05:14:00,
2013-01-10 19:19:00,71.6,64.0,30.00,SE,135,4.5,8.1,77,0.00,SCT,BKN,0.00,0.0,WeatherDisplay:10.37,2013-01-11 05:19:00,
2013-01-10 19:24:00,71.8,63.8,30.00,ENE,68,3.1,5.8,76,0.00,SCT,BKN,0.00,0.0,WeatherDisplay:10.37,2013-01-11 05:24:00,
2013-01-10 19:29:00,71.8,63.8,30.00,NNE,22,2.9,4.6,76,0.00,SCT,BKN,0.00,0.0,WeatherDisplay:10.37,2013-01-11 05:29:00,
2013-01-10 19:34:00,71.8,64.2,29.97,SE,135,1.4,2.3,77,0.00,SCT,BKN,0.00,0.0,WeatherDisplay:10.37,2013-01-11 05:34:00,
2013-01-10 19:39:00,71.6,63.6,29.97,East,90,6.0,8.1,76,0.00,SCT,BKN,0.00,0.0,WeatherDisplay:10.37,2013-01-11 05:39:00,
2013-01-10 19:44:00,71.8,64.2,29.97,East,90,2.4,4.6,77,0.00,SCT,BKN,0.00,0.0,WeatherDisplay:10.37,2013-01-11 05:44:00,
2013-01-10 19:49:00,71.8,64.2,30.00,North,0,3.3,5.8,77,0.00,SCT,BKN,0.00,0.0,WeatherDisplay:10.37,2013-01-11 05:49:00,
2013-01-10 19:54:00,71.6,64.0,30.00,NE,45,3.3,5.4,77,0.00,SCT,BKN,0.00,0.0,WeatherDisplay:10.37,2013-01-11 05:54:00,
2013-01-10 19:59:00,71.6,64.0,30.00,WSW,248,3.8,4.6,77,0.00,SCT,BKN,0.00,0.0,WeatherDisplay:10.37,2013-01-11 05:59:00,
2013-01-10 20:04:00,71.6,63.6,30.00,ENE,68,2.0,4.6,76,0.00,SCT,BKN,0.00,0.0,WeatherDisplay:10.37,2013-01-11 06:04:00,
2013-01-10 20:09:00,71.8,63.4,30.00,NW,315,3.1,5.9,75,0.00,SCT,BKN,0.00,0.0,WeatherDisplay:10.37,2013-01-11 06:09:00,
2013-01-10 20:14:00,71.8,63.8,30.00,ESE,112,0.9,2.3,76,0.00,SCT,BKN,0.00,0.0,WeatherDisplay:10.37,2013-01-11 06:14:00,
2013-01-10 20:19:00,71.8,63.8,30.00,NNE,22,3.6,4.6,76,0.00,SCT,BKN,0.00,0.0,WeatherDisplay:10.37,2013-01-11 06:19:00,
2013-01-10 20:24:00,71.8,63.8,30.00,West,270,4.9,8.1,76,0.00,SCT,BKN,0.00,0.0,WeatherDisplay:10.37,2013-01-11 06:24:00,
2013-01-10 20:29:00,71.8,63.8,30.00,NNW,338,2.2,4.6,76,0.00,SCT,BKN,0.00,0.0,WeatherDisplay:10.37,2013-01-11 06:29:00,
2013-01-10 20:34:00,71.8,63.8,30.00,ENE,68,2.4,4.3,76,0.00,SCT,BKN,0.00,0.0,WeatherDisplay:10.37,2013-01-11 06:34:00,
2013-01-10 20:39:00,71.6,63.6,30.00,NE,45,3.6,5.8,76,0.00,SCT,BKN,0.00,0.0,WeatherDisplay:10.37,2013-01-11 06:39:00,
2013-01-10 20:44:00,71.6,63.6,30.00,NE,45,3.6,4.6,76,0.00,SCT,BKN,0.00,0.0,WeatherDisplay:10.37,2013-01-11 06:44:00,
2013-01-10 20:49:00,71.8,64.2,30.00,NW,315,4.3,6.9,77,0.00,SCT,BKN,0.00,0.0,WeatherDisplay:10.37,2013-01-11 06:49:00,
2013-01-10 20:54:00,71.8,64.2,30.00,NNW,338,6.7,8.1,77,0.00,SCT,BKN,0.00,0.0,WeatherDisplay:10.37,2013-01-11 06:54:00,
2013-01-10 20:59:00,71.6,64.0,30.00,North,0,2.2,3.5,77,0.00,SCT,BKN,0.00,0.0,WeatherDisplay:10.37,2013-01-11 06:59:00,
2013-01-10 21:04:00,71.6,63.6,30.03,NNE,22,2.4,4.9,76,0.00,SCT,BKN,0.00,0.0,WeatherDisplay:10.37,2013-01-11 07:04:00,
2013-01-10 21:09:00,71.6,63.6,30.03,NE,45,3.1,6.9,76,0.00,SCT,BKN,0.00,0.0,WeatherDisplay:10.37,2013-01-11 07:09:00,
2013-01-10 21:14:00,71.4,63.5,30.03,ENE,68,4.7,6.9,76,0.00,SCT,BKN,0.00,0.0,WeatherDisplay:10.37,2013-01-11 07:14:00,
2013-01-10 21:19:00,71.2,63.7,30.03,WNW,292,3.3,5.8,77,0.00,SCT,BKN,0.00,0.0,WeatherDisplay:10.37,2013-01-11 07:19:00,
2013-01-10 21:24:00,71.2,63.3,30.03,NE,45,6.0,9.2,76,0.00,SCT,BKN,0.00,0.0,WeatherDisplay:10.37,2013-01-11 07:24:00,
2013-01-10 21:29:00,71.2,63.3,30.03,NNW,338,2.4,5.8,76,0.00,SCT,BKN,0.00,0.0,WeatherDisplay:10.37,2013-01-11 07:29:00,
2013-01-10 21:34:00,71.2,63.3,30.03,NNE,22,3.6,5.8,76,0.00,SCT,BKN,0.00,0.0,WeatherDisplay:10.37,2013-01-11 07:34:00,
2013-01-10 21:39:00,71.2,63.3,30.03,NNE,22,2.9,4.6,76,0.00,SCT,BKN,0.00,0.0,WeatherDisplay:10.37,2013-01-11 07:39:00,
2013-01-10 21:44:00,71.2,63.3,30.03,North,0,3.8,4.6,76,0.00,SCT,BKN,0.00,0.0,WeatherDisplay:10.37,2013-01-11 07:44:00,
2013-01-10 21:49:00,71.2,63.3,30.03,North,0,4.7,4.7,76,0.00,SCT,BKN,0.00,0.0,WeatherDisplay:10.37,2013-01-11 07:49:00,
2013-01-10 21:54:00,71.2,63.7,30.03,NNE,22,2.2,4.6,77,0.00,SCT,BKN,0.00,0.0,WeatherDisplay:10.37,2013-01-11 07:54:00,
2013-01-10 21:59:00,71.2,63.7,30.03,ENE,68,3.1,4.6,77,0.00,SCT,BKN,0.00,0.0,WeatherDisplay:10.37,2013-01-11 07:59:00,
2013-01-10 22:04:00,71.1,63.5,30.03,NW,315,4.0,4.6,77,0.00,SCT,BKN,0.00,0.0,WeatherDisplay:10.37,2013-01-11 08:04:00,
2013-01-10 22:09:00,71.2,64.0,30.03,North,0,1.4,3.5,78,0.00,SCT,BKN,0.00,0.0,WeatherDisplay:10.37,2013-01-11 08:09:00,
2013-01-10 22:14:00,71.1,63.9,30.03,NE,45,2.0,3.5,78,0.00,SCT,BKN,0.00,0.0,WeatherDisplay:10.37,2013-01-11 08:14:00,
2013-01-10 22:19:00,71.2,64.0,30.03,West,270,3.6,4.9,78,0.00,SCT,BKN,0.00,0.0,WeatherDisplay:10.37,2013-01-11 08:19:00,
2013-01-10 22:24:00,71.4,64.6,30.03,NE,45,4.5,5.8,79,0.00,SCT,BKN,0.00,0.0,WeatherDisplay:10.37,2013-01-11 08:24:00,
2013-01-10 22:29:00,71.4,64.6,30.03,North,0,4.7,6.9,79,0.00,SCT,BKN,0.00,0.0,WeatherDisplay:10.37,2013-01-11 08:29:00,
2013-01-10 22:34:00,71.4,64.2,30.03,NNE,22,3.3,5.6,78,0.00,SCT,BKN,0.00,0.0,WeatherDisplay:10.37,2013-01-11 08:34:00,
2013-01-10 22:39:00,71.4,64.6,30.03,North,0,2.9,4.6,79,0.00,SCT,BKN,0.00,0.0,WeatherDisplay:10.37,2013-01-11 08:39:00,
2013-01-10 22:44:00,71.2,64.4,30.03,West,270,2.6,4.6,79,0.00,SCT,BKN,0.00,0.0,WeatherDisplay:10.37,2013-01-11 08:44:00,
2013-01-10 22:49:00,71.2,64.0,30.00,ENE,68,1.4,3.8,78,0.00,SCT,BKN,0.00,0.0,WeatherDisplay:10.37,2013-01-11 08:49:00,
2013-01-10 22:54:00,71.2,64.4,30.00,NNW,338,3.1,5.6,79,0.00,SCT,BKN,0.00,0.0,WeatherDisplay:10.37,2013-01-11 08:54:00,
2013-01-10 22:59:00,71.2,64.0,30.00,NE,45,1.4,2.3,78,0.00,SCT,BKN,0.00,0.0,WeatherDisplay:10.37,2013-01-11 08:59:00,
2013-01-10 23:04:00,71.1,63.9,30.00,NE,45,2.0,3.1,78,0.00,SCT,BKN,0.00,0.0,WeatherDisplay:10.37,2013-01-11 09:04:00,
2013-01-10 23:09:00,71.2,64.4,30.00,ESE,112,4.7,5.8,79,0.00,SCT,BKN,0.00,0.0,WeatherDisplay:10.37,2013-01-11 09:09:00,
2013-01-10 23:14:00,71.1,64.2,30.00,NNW,338,3.6,5.8,79,0.00,SCT,BKN,0.00,0.0,WeatherDisplay:10.37,2013-01-11 09:14:00,
2013-01-10 23:19:00,71.2,64.4,30.00,NW,315,4.5,6.0,79,0.00,SCT,BKN,0.00,0.0,WeatherDisplay:10.37,2013-01-11 09:19:00,
2013-01-10 23:24:00,71.1,64.2,30.00,East,90,3.6,5.8,79,0.00,SCT,BKN,0.00,0.0,WeatherDisplay:10.37,2013-01-11 09:24:00,
2013-01-10 23:29:00,71.1,63.9,30.00,WSW,248,2.9,5.8,78,0.00,SCT,BKN,0.00,0.0,WeatherDisplay:10.37,2013-01-11 09:29:00,
2013-01-10 23:34:00,71.1,63.9,30.00,NW,315,3.1,4.6,78,0.00,SCT,BKN,0.00,0.0,WeatherDisplay:10.37,2013-01-11 09:34:00,
2013-01-10 23:39:00,71.1,63.9,30.00,SSW,202,1.6,2.9,78,0.00,SCT,BKN,0.00,0.0,WeatherDisplay:10.37,2013-01-11 09:39:00,
2013-01-10 23:44:00,71.1,64.2,30.00,WNW,292,2.4,3.5,79,0.00,SCT,BKN,0.00,0.0,WeatherDisplay:10.37,2013-01-11 09:44:00,
2013-01-10 23:49:00,70.9,63.7,30.00,NNW,338,3.1,3.5,78,0.00,SCT,BKN,0.00,0.0,WeatherDisplay:10.37,2013-01-11 09:49:00,
2013-01-10 23:54:00,71.1,63.5,30.00,NW,315,2.0,2.9,77,0.00,SCT,BKN,0.00,0.0,WeatherDisplay:10.37,2013-01-11 09:54:00,
2013-01-10 23:59:00,71.1,63.9,30.00,NE,45,3.1,3.5,78,0.00,SCT,BKN,0.00,0.0,WeatherDisplay:10.37,2013-01-11 09:59:00,